• In Russia
  • List of Countries
  • For 7 days
  • Water Temperature
  • Satellite Maps
  • Weather Map
  • Weather Widgets
  • user-avatar
    Login

    Hourly Weather Bicske

    Today, 17 August, Thursday

    Time Temperature Precipitation Wind Pressure Humidity
    00:00 +23°C° 0 mm 2 mps 749 mmHg 63%
    01:00 +21°C° 0 mm 2 mps 749 mmHg 67%
    02:00 +21°C° 0 mm 2 mps 749 mmHg 70%
    03:00 +20°C° 0 mm 2 mps 749 mmHg 72%
    04:00 +20°C° 0 mm 2 mps 749 mmHg 74%
    05:00 +21°C° 0 mm 2 mps 749 mmHg 69%
    06:00 +23°C° 0 mm 2 mps 749 mmHg 65%
    07:00 +24°C° 0 mm 2 mps 749 mmHg 58%
    08:00 +26°C° 0 mm 2 mps 749 mmHg 51%
    09:00 +29°C° 0 mm 2 mps 749 mmHg 44%
    10:00 +31°C° 0 mm 1 mps 749 mmHg 37%
    11:00 +32°C° 0 mm 1 mps 749 mmHg 34%
    12:00 +33°C° 0 mm 1 mps 749 mmHg 30%
    13:00 +35°C° 0 mm 1 mps 748 mmHg 26%
    14:00 +35°C° 0 mm 1 mps 748 mmHg 26%
    15:00 +34°C° 0 mm 1 mps 748 mmHg 25%
    16:00 +34°C° 0 mm 1 mps 747 mmHg 25%
    17:00 +33°C° 0 mm 1 mps 747 mmHg 28%
    18:00 +31°C° 0 mm 1 mps 747 mmHg 31%
    19:00 +29°C° 0 mm 1 mps 747 mmHg 35%
    20:00 +28°C° 0 mm 1 mps 748 mmHg 37%
    21:00 +27°C° 0 mm 1 mps 748 mmHg 39%
    22:00 +26°C° 0 mm 1 mps 748 mmHg 42%
    23:00 +25°C° 0 mm 1 mps 748 mmHg 44%

    Tomorrow, 18 August, Friday

    Time Temperature Precipitation Wind Pressure Humidity
    00:00 +25°C° 0 mm 1 mps 748 mmHg 46%
    01:00 +24°C° 0 mm 1 mps 748 mmHg 47%
    02:00 +24°C° 0 mm 1 mps 748 mmHg 48%
    03:00 +21°C° 0 mm 0 mps 748 mmHg 49%
    04:00 +21°C° 0 mm 0 mps 748 mmHg 50%
    05:00 +24°C° 0 mm 1 mps 748 mmHg 47%
    06:00 +26°C° 0 mm 1 mps 748 mmHg 44%
    07:00 +27°C° 0 mm 1 mps 748 mmHg 41%
    08:00 +29°C° 0 mm 1 mps 748 mmHg 36%
    09:00 +31°C° 0 mm 1 mps 748 mmHg 31%
    10:00 +33°C° 0 mm 1 mps 748 mmHg 27%
    11:00 +34°C° 0 mm 1 mps 748 mmHg 25%
    12:00 +35°C° 0 mm 1 mps 748 mmHg 23%
    13:00 +36°C° 0 mm 1 mps 747 mmHg 21%
    14:00 +37°C° 0 mm 2 mps 747 mmHg 20%
    15:00 +38°C° 0 mm 2 mps 746 mmHg 20%
    16:00 +38°C° 0 mm 2 mps 746 mmHg 19%
    17:00 +36°C° 0 mm 2 mps 746 mmHg 22%
    18:00 +34°C° 0 mm 2 mps 745 mmHg 24%
    19:00 +31°C° 0 mm 2 mps 745 mmHg 27%
    20:00 +30°C° 0 mm 3 mps 745 mmHg 29%
    21:00 +29°C° 0 mm 3 mps 745 mmHg 31%
    22:00 +27°C° 0 mm 3 mps 745 mmHg 33%
    23:00 +27°C° 0 mm 3 mps 745 mmHg 35%

    Day after tomorrow, 19 August, Saturday

    Time Temperature Precipitation Wind Pressure Humidity
    00:00 +26°C° 0 mm 2 mps 745 mmHg 37%
    01:00 +25°C° 0 mm 2 mps 745 mmHg 39%
    02:00 +25°C° 0 mm 2 mps 745 mmHg 41%
    03:00 +24°C° 0 mm 2 mps 745 mmHg 43%
    04:00 +24°C° 0 mm 2 mps 745 mmHg 44%
    05:00 +24°C° 0 mm 2 mps 745 mmHg 45%
    06:00 +25°C° 0 mm 3 mps 745 mmHg 46%
    07:00 +26°C° 0 mm 3 mps 746 mmHg 47%
    08:00 +28°C° 0 mm 3 mps 746 mmHg 44%
    09:00 +29°C° 0 mm 4 mps 746 mmHg 41%
    10:00 +32°C° 0 mm 4 mps 746 mmHg 38%
    11:00 +32°C° 0 mm 5 mps 746 mmHg 37%
    12:00 +33°C° 0 mm 5 mps 746 mmHg 36%
    13:00 +33°C° 0 mm 5 mps 746 mmHg 35%
    14:00 +32°C° 0 mm 6 mps 745 mmHg 41%
    15:00 +29°C° 0 mm 7 mps 745 mmHg 46%
    16:00 +27°C° 0 mm 8 mps 745 mmHg 51%
    17:00 +24°C° 0.5 mm 8 mps 746 mmHg 58%
    18:00 +22°C° 0.5 mm 7 mps 746 mmHg 65%
    19:00 +20°C° 0.5 mm 6 mps 746 mmHg 72%
    20:00 +20°C° 1.1 mm 6 mps 746 mmHg 76%
    21:00 +20°C° 1.1 mm 6 mps 747 mmHg 79%
    22:00 +19°C° 1.1 mm 6 mps 747 mmHg 83%
    23:00 +19°C° 0.8 mm 5 mps 747 mmHg 84%

    20 August, Sunday

    Time Temperature Precipitation Wind Pressure Humidity
    00:00 +17°C° 0.8 mm 5 mps 747 mmHg 85%
    01:00 +18°C° 0.8 mm 4 mps 747 mmHg 86%
    02:00 +18°C° 0.3 mm 4 mps 747 mmHg 86%
    03:00 +18°C° 0.3 mm 4 mps 747 mmHg 85%
    04:00 +18°C° 0.3 mm 4 mps 747 mmHg 85%
    05:00 +18°C° 0.4 mm 4 mps 747 mmHg 84%
    06:00 +18°C° 0.4 mm 4 mps 748 mmHg 83%
    07:00 +18°C° 0.4 mm 4 mps 748 mmHg 82%
    08:00 +17°C° 0.3 mm 5 mps 748 mmHg 78%
    09:00 +19°C° 0.3 mm 5 mps 748 mmHg 74%
    10:00 +20°C° 0.3 mm 5 mps 748 mmHg 69%
    11:00 +21°C° 0.1 mm 5 mps 748 mmHg 62%
    12:00 +23°C° 0.1 mm 5 mps 748 mmHg 55%
    13:00 +25°C° 0.1 mm 5 mps 748 mmHg 48%
    14:00 +25°C° 0 mm 5 mps 748 mmHg 46%
    15:00 +26°C° 0 mm 5 mps 748 mmHg 44%
    16:00 +26°C° 0 mm 4 mps 748 mmHg 42%
    17:00 +25°C° 0 mm 4 mps 748 mmHg 46%
    18:00 +22°C° 0 mm 3 mps 749 mmHg 49%
    19:00 +21°C° 0 mm 2 mps 749 mmHg 53%
    20:00 +20°C° 0 mm 2 mps 749 mmHg 57%
    21:00 +19°C° 0 mm 2 mps 749 mmHg 60%
    22:00 +18°C° 0 mm 2 mps 750 mmHg 64%
    23:00 +17°C° 0 mm 2 mps 750 mmHg 65%

    21 August, Monday

    Time Temperature Precipitation Wind Pressure Humidity
    00:00 +17°C° 0 mm 3 mps 750 mmHg 66%
    01:00 +16°C° 0 mm 3 mps 750 mmHg 68%
    02:00 +16°C° 0 mm 3 mps 750 mmHg 69%
    03:00 +14°C° 0 mm 3 mps 750 mmHg 70%
    04:00 +14°C° 0 mm 3 mps 750 mmHg 71%
    05:00 +15°C° 0 mm 4 mps 750 mmHg 67%
    06:00 +17°C° 0 mm 4 mps 750 mmHg 64%
    07:00 +16°C° 0 mm 5 mps 750 mmHg 61%
    08:00 +19°C° 0 mm 5 mps 750 mmHg 54%
    09:00 +21°C° 0 mm 5 mps 750 mmHg 48%
    10:00 +23°C° 0 mm 5 mps 750 mmHg 41%
    11:00 +25°C° 0 mm 5 mps 750 mmHg 38%
    12:00 +26°C° 0 mm 5 mps 749 mmHg 35%
    13:00 +27°C° 0 mm 5 mps 749 mmHg 32%
    14:00 +27°C° 0 mm 5 mps 749 mmHg 32%
    15:00 +27°C° 0 mm 5 mps 749 mmHg 31%
    16:00 +27°C° 0 mm 5 mps 749 mmHg 31%
    17:00 +25°C° 0 mm 5 mps 749 mmHg 36%
    18:00 +22°C° 0 mm 4 mps 749 mmHg 41%
    19:00 +21°C° 0 mm 3 mps 749 mmHg 46%
    20:00 +20°C° 0 mm 3 mps 749 mmHg 50%
    21:00 +19°C° 0 mm 3 mps 749 mmHg 54%
    22:00 +18°C° 0 mm 3 mps 749 mmHg 58%
    23:00 +17°C° 0 mm 2 mps 749 mmHg 61%

    22 August, Tuesday

    Time Temperature Precipitation Wind Pressure Humidity
    00:00 +17°C° 0 mm 2 mps 749 mmHg 64%
    01:00 +16°C° 0 mm 2 mps 749 mmHg 66%
    02:00 +16°C° 0 mm 2 mps 749 mmHg 68%
    03:00 +15°C° 0 mm 1 mps 749 mmHg 70%
    04:00 +15°C° 0 mm 1 mps 749 mmHg 72%
    05:00 +16°C° 0 mm 1 mps 749 mmHg 67%
    06:00 +19°C° 0 mm 1 mps 749 mmHg 62%
    07:00 +20°C° 0 mm 1 mps 749 mmHg 58%
    08:00 +22°C° 0 mm 1 mps 749 mmHg 51%
    09:00 +24°C° 0 mm 2 mps 749 mmHg 44%
    10:00 +26°C° 0 mm 2 mps 749 mmHg 37%
    11:00 +27°C° 0 mm 2 mps 748 mmHg 34%
    12:00 +28°C° 0 mm 2 mps 747 mmHg 32%
    13:00 +29°C° 0 mm 2 mps 747 mmHg 30%
    14:00 +29°C° 0 mm 2 mps 746 mmHg 29%
    15:00 +30°C° 0 mm 2 mps 746 mmHg 29%
    16:00 +30°C° 0 mm 2 mps 745 mmHg 28%
    17:00 +29°C° 0 mm 2 mps 745 mmHg 32%
    18:00 +27°C° 0 mm 2 mps 745 mmHg 36%
    19:00 +25°C° 0 mm 2 mps 745 mmHg 39%
    20:00 +24°C° 0 mm 2 mps 745 mmHg 41%
    21:00 +23°C° 0 mm 2 mps 745 mmHg 44%
    22:00 +21°C° 0 mm 2 mps 745 mmHg 46%
    23:00 +21°C° 0 mm 2 mps 745 mmHg 47%
    Show more